TimeCDT,TemperatureF,Dew PointF,Humidity,Sea Level PressureIn,VisibilityMPH,Wind Direction,Wind SpeedMPH,Gust SpeedMPH,PrecipitationIn,Events,Conditions,WindDirDegrees,DateUTC
12:54 AM,52.0,41.0,66,30.01,10.0,NNW,6.9,-,N/A,,Partly Cloudy,330,2012-09-18 05:54:00
1:54 AM,48.9,41.0,74,30.02,10.0,NW,4.6,-,N/A,,Clear,310,2012-09-18 06:54:00
2:54 AM,48.0,41.0,77,30.03,10.0,NNW,6.9,-,N/A,,Clear,330,2012-09-18 07:54:00
3:54 AM,46.0,41.0,83,30.03,10.0,NW,5.8,-,N/A,,Clear,310,2012-09-18 08:54:00
4:54 AM,45.0,39.9,82,30.03,10.0,NW,5.8,-,N/A,,Clear,320,2012-09-18 09:54:00
5:54 AM,44.1,39.9,85,30.04,10.0,NW,10.4,-,N/A,,Clear,320,2012-09-18 10:54:00
6:54 AM,43.0,39.0,86,30.05,10.0,NW,6.9,-,N/A,,Clear,310,2012-09-18 11:54:00
7:54 AM,45.0,39.0,80,30.06,10.0,NW,9.2,-,N/A,,Clear,310,2012-09-18 12:54:00
8:54 AM,48.0,39.9,74,30.08,10.0,NW,10.4,-,N/A,,Partly Cloudy,310,2012-09-18 13:54:00
9:54 AM,52.0,41.0,66,30.09,10.0,NW,9.2,-,N/A,,Partly Cloudy,310,2012-09-18 14:54:00
10:54 AM,55.9,39.9,55,30.09,10.0,NW,9.2,-,N/A,,Partly Cloudy,310,2012-09-18 15:54:00
11:54 AM,59.0,36.0,42,30.08,10.0,NNW,15.0,21.9,N/A,,Partly Cloudy,340,2012-09-18 16:54:00
12:54 PM,61.0,32.0,34,30.07,10.0,WNW,11.5,16.1,N/A,,Partly Cloudy,300,2012-09-18 17:54:00
1:54 PM,64.0,30.0,28,30.05,10.0,NW,15.0,21.9,N/A,,Partly Cloudy,310,2012-09-18 18:54:00
2:54 PM,64.9,32.0,29,30.04,10.0,NW,12.7,17.3,N/A,,Clear,310,2012-09-18 19:54:00
3:54 PM,66.0,30.0,26,30.02,10.0,NW,10.4,-,N/A,,Partly Cloudy,310,2012-09-18 20:54:00
4:54 PM,66.0,28.9,25,30.01,10.0,NW,4.6,-,N/A,,Partly Cloudy,320,2012-09-18 21:54:00
5:54 PM,66.0,30.0,26,30.01,10.0,West,9.2,-,N/A,,Partly Cloudy,280,2012-09-18 22:54:00
6:54 PM,62.1,32.0,32,30.02,10.0,WSW,4.6,-,N/A,,Partly Cloudy,250,2012-09-18 23:54:00
7:54 PM,60.1,33.1,36,30.01,10.0,South,4.6,-,N/A,,Partly Cloudy,190,2012-09-19 00:54:00
8:54 PM,55.0,37.0,51,30.02,10.0,SSE,5.8,-,N/A,,Partly Cloudy,160,2012-09-19 01:54:00
9:54 PM,55.9,37.0,49,30.02,10.0,South,6.9,-,N/A,,Overcast,170,2012-09-19 02:54:00
10:54 PM,53.1,37.0,55,30.01,10.0,SSE,8.1,-,N/A,,Mostly Cloudy,160,2012-09-19 03:54:00
11:54 PM,53.1,37.0,55,29.99,10.0,SSE,6.9,-,N/A,,Mostly Cloudy,150,2012-09-19 04:54:00